GW0392 Weather Reports


Display with metric or nautical units.
time (UTC)temp
F
wind
direction
speed
MPH
gust
MPH
rain 1hr
in
rain 24hr
in
rain mn
in
humidity
%
barometer
mb
20260906124300 73 225 0.0 0.0 0.00 0.00 0.00 96 1013.8
20260906123759 73 220 0.0 0.0 0.00 0.00 0.00 96 1013.8
20260906123254 73 220 0.0 0.0 0.00 0.00 0.00 96 1013.6
20260906122754 73 221 0.0 1.0 0.00 0.00 0.00 96 1013.7
20260906122249 73 221 0.0 2.0 0.00 0.00 0.00 96 1013.7
20260906121746 73 202 1.0 1.0 0.00 0.00 0.00 96 1013.7
20260906121242 73 206 0.0 0.0 0.00 0.00 0.00 96 1013.5
20260906120737 73 223 0.0 0.0 0.00 0.00 0.00 96 1013.6
20260906120234 73 227 0.0 0.0 0.00 0.00 0.00 96 1013.5
20260906115729 73 225 0.0 0.0 0.00 0.00 0.00 95 1013.4
20260906115224 73 221 0.0 0.0 0.00 0.00 0.00 95 1013.4
20260906114723 74 205 0.0 0.0 0.00 0.00 0.00 95 1013.2
20260906114218 74 220 0.0 0.0 0.00 0.00 0.00 95 1013.3
20260906113714 74 218 1.0 2.0 0.00 0.00 0.00 95 1013.2
20260906113213 74 214 0.0 2.0 0.00 0.00 0.00 95 1013.3
20260906112713 74 207 1.0 3.0 0.00 0.00 0.00 95 1013.0
20260906112210 74 192 2.0 2.0 0.00 0.00 0.00 95 1013.0
20260906111709 74 220 0.0 1.0 0.00 0.00 0.00 95 1013.0
20260906111204 74 221 0.0 2.0 0.00 0.00 0.00 95 1012.7
20260906110659 74 220 1.0 2.0 0.00 0.00 0.00 95 1013.0
20260906110154 74 225 1.0 2.0 0.00 0.00 0.00 95 1012.8
20260906105648 74 213 1.0 3.0 0.00 0.00 0.00 95 1012.8
20260906105144 74 215 0.0 1.0 0.00 0.00 0.00 94 1012.7
20260906104643 74 224 0.0 0.0 0.00 0.00 0.00 94 1012.5
20260906104137 74 220 0.0 0.0 0.00 0.00 0.00 94 1012.3
20260906103635 74 216 0.0 0.0 0.00 0.00 0.00 95 1012.4
20260906103130 74 223 0.0 0.0 0.00 0.00 0.00 95 1012.4
20260906102625 74 221 0.0 0.0 0.00 0.00 0.00 95 1012.5
20260906102120 74 219 0.0 0.0 0.00 0.00 0.00 94 1012.4
20260906101615 74 226 0.0 0.0 0.00 0.00 0.00 94 1012.5
20260906101115 74 225 0.0 0.0 0.00 0.00 0.00 94 1012.7
20260906100610 74 226 0.0 0.0 0.00 0.00 0.00 94 1012.3
20260906100110 75 223 0.0 0.0 0.00 0.00 0.00 94 1012.8
20260906095610 74 221 0.0 0.0 0.00 0.00 0.00 93 1012.7
20260906095106 75 225 0.0 0.0 0.00 0.00 0.00 93 1012.7
20260906094604 75 225 0.0 0.0 0.00 0.00 0.00 93 1012.9
20260906094100 75 225 0.0 0.0 0.00 0.00 0.00 92 1012.9
20260906093556 75 225 0.0 0.0 0.00 0.00 0.00 92 1013.1
20260906093051 76 221 0.0 0.0 0.00 0.00 0.00 91 1013.0
20260906092546 76 222 0.0 0.0 0.00 0.00 0.00 90 1013.0
20260906092041 76 221 0.0 0.0 0.00 0.00 0.00 90 1013.4
20260906091537 76 218 0.0 1.0 0.00 0.00 0.00 90 1013.2
20260906091033 75 218 0.0 1.0 0.00 0.00 0.00 91 1013.3
20260906090528 75 206 2.0 2.0 0.00 0.00 0.00 91 1013.3
20260906090023 75 219 0.0 0.0 0.00 0.00 0.00 91 1013.4
20260906085521 75 221 0.0 0.0 0.00 0.00 0.00 92 1013.6
20260906085021 75 222 0.0 0.0 0.00 0.00 0.00 92 1013.5
20260906084516 75 217 0.0 0.0 0.00 0.00 0.00 91 1013.7
20260906084015 76 220 0.0 0.0 0.00 0.00 0.00 92 1013.6
20260906083511 76 223 0.0 0.0 0.00 0.00 0.00 90 1013.4
20260906083010 76 224 0.0 0.0 0.00 0.00 0.00 90 1013.5
20260906082505 76 225 0.0 0.0 0.00 0.00 0.00 90 1013.1
20260906082001 77 224 0.0 1.0 0.00 0.00 0.00 90 1013.3
20260906081456 77 221 0.0 0.0 0.00 0.00 0.00 89 1013.2
20260906080952 77 219 0.0 0.0 0.00 0.00 0.00 88 1013.2
20260906080448 77 224 0.0 0.0 0.00 0.00 0.00 88 1013.1
20260906075943 77 223 0.0 1.0 0.00 0.00 0.00 88 1013.1
20260906075437 77 203 2.0 6.0 0.00 0.00 0.00 88 1012.7
20260906074932 76 213 2.0 3.0 0.00 0.00 0.00 89 1012.5
20260906074427 76 228 0.0 1.0 0.00 0.00 0.00 90 1012.7
20260906073926 75 220 0.0 2.0 0.00 0.00 0.00 91 1012.7
20260906073421 75 218 0.0 0.0 0.00 0.00 0.00 94 1012.5
20260906072917 75 226 0.0 0.0 0.00 0.00 0.00 94 1012.3
20260906072412 75 221 0.0 1.0 0.00 0.00 0.00 94 1012.8
20260906071908 74 220 0.0 1.0 0.00 0.00 0.00 96 1012.7
20260906071404 74 225 0.0 1.0 0.00 0.00 0.00 97 1012.7
20260906070859 74 213 1.0 1.0 0.00 0.00 0.00 97 1012.9
20260906070355 74 209 1.0 2.0 0.00 0.00 0.00 98 1013.0
20260906065851 74 217 1.0 2.0 0.00 0.00 0.00 98 1013.4
20260906065344 74 224 0.0 1.0 0.00 0.00 0.00 98 1013.5
20260906064840 74 221 0.0 1.0 0.00 0.00 0.00 98 1013.9
20260906064337 74 223 0.0 0.0 0.00 0.00 0.00 98 1013.7
20260906063836 74 221 0.0 0.0 0.00 0.00 0.00 98 1013.6
20260906063332 74 221 0.0 0.0 0.00 0.00 0.00 99 1013.5
20260906062827 73 211 0.0 0.0 0.00 0.00 0.00 99 1013.5
20260906062326 73 214 0.0 0.0 0.00 0.00 0.00 99 1013.7
20260906061822 73 215 0.0 0.0 0.00 0.00 0.00 99 1013.6
20260906061318 73 221 0.0 0.0 0.00 0.00 0.00 99 1013.6
20260906060813 73 221 0.0 0.0 0.00 0.00 0.00 99 1013.4
20260906060311 73 221 0.0 0.0 0.00 0.00 0.00 99 1013.3
20260906055806 73 219 0.0 0.0 0.00 0.00 0.00 99 1013.2
20260906055301 73 224 0.0 0.0 0.00 0.00 0.00 99 1013.0
20260906054756 73 225 0.0 0.0 0.00 0.00 0.00 99 1012.9
20260906054252 73 224 0.0 0.0 0.00 0.00 0.00 99 1012.9
20260906053748 73 223 0.0 0.0 0.00 0.00 0.00 99 1013.0
20260906053244 73 225 0.0 0.0 0.00 0.00 0.00 99 1013.1
20260906052738 73 225 0.0 0.0 0.00 0.00 0.00 99 1013.1
20260906052235 73 224 0.0 0.0 0.00 0.00 0.00 99 1013.0
20260906051732 73 225 0.0 0.0 0.00 0.00 0.00 99 1013.1
20260906051231 73 225 0.0 0.0 0.00 0.00 0.00 99 1012.9
20260906050726 73 223 0.0 0.0 0.00 0.00 0.00 98 1013.2
20260906050221 73 223 0.0 0.0 0.00 0.00 0.00 98 1013.2
20260906045720 73 223 0.0 0.0 0.00 0.00 0.00 98 1013.2
20260906045215 74 225 0.0 0.0 0.00 0.00 0.00 98 1013.3
20260906044706 74 223 0.0 0.0 0.00 0.00 0.00 98 1013.5
20260906044200 74 223 0.0 0.0 0.00 0.00 0.00 98 1013.3
20260906043656 74 223 0.0 0.0 0.00 0.00 0.00 98 1013.1
20260906043152 74 223 0.0 0.0 0.00 0.00 0.00 98 1013.2
20260906042651 74 226 0.0 0.0 0.00 0.00 0.00 98 1013.3
20260906042145 74 223 0.0 0.0 0.00 0.00 0.00 98 1013.3
20260906041641 74 222 0.0 0.0 0.00 0.00 0.00 98 1013.4
20260906041136 74 223 0.0 0.0 0.00 0.00 0.00 98 1013.3
20260906040631 74 225 0.0 0.0 0.00 0.00 0.00 98 1013.3
20260906040127 74 225 0.0 0.0 0.00 0.00 0.00 98 1013.2
20260906035622 75 225 0.0 0.0 0.00 0.02 0.02 98 1013.3
20260906035118 75 225 0.0 0.0 0.00 0.02 0.02 97 1013.5
20260906034618 75 225 0.0 0.0 0.00 0.02 0.02 97 1013.4
20260906034112 75 225 0.0 0.0 0.00 0.02 0.02 97 1013.6
20260906033608 75 225 0.0 0.0 0.00 0.02 0.02 97 1013.6
20260906033103 75 225 0.0 0.0 0.00 0.02 0.02 97 1013.4
20260906032600 75 223 0.0 0.0 0.00 0.02 0.02 97 1013.5
20260906032100 75 223 0.0 0.0 0.00 0.02 0.02 97 1013.5
20260906031555 75 224 0.0 0.0 0.00 0.02 0.02 96 1013.6
20260906031050 75 224 0.0 0.0 0.00 0.02 0.02 96 1013.4
20260906030550 75 225 0.0 0.0 0.00 0.02 0.02 96 1013.3
20260906030049 75 225 0.0 0.0 0.00 0.02 0.02 96 1013.4
20260906025544 75 226 0.0 0.0 0.00 0.02 0.02 96 1013.4
20260906025042 75 233 0.0 0.0 0.00 0.02 0.02 97 1013.5
20260906024537 75 227 0.0 0.0 0.00 0.02 0.02 97 1013.4
20260906024031 75 225 0.0 0.0 0.00 0.02 0.02 96 1013.1
20260906023527 75 225 0.0 0.0 0.00 0.02 0.02 96 1013.0
20260906023017 75 227 0.0 0.0 0.00 0.02 0.02 96 1013.1
20260906022512 76 222 0.0 0.0 0.00 0.02 0.02 96 1013.0
20260906022007 76 222 0.0 0.0 0.00 0.02 0.02 96 1013.2
20260906021503 76 225 0.0 0.0 0.00 0.02 0.02 96 1013.0
20260906020957 76 225 0.0 0.0 0.00 0.02 0.02 96 1012.9
20260906020451 76 225 0.0 0.0 0.00 0.02 0.02 96 1013.0
20260906015950 76 225 0.0 0.0 0.00 0.02 0.02 96 1013.1
20260906015449 76 225 0.0 0.0 0.00 0.02 0.02 96 1013.1
20260906014944 77 225 0.0 0.0 0.00 0.02 0.02 96 1013.0
20260906014444 77 225 0.0 0.0 0.00 0.02 0.02 96 1012.8
20260906013940 77 222 0.0 0.0 0.00 0.02 0.02 96 1012.5
20260906013435 77 222 0.0 0.0 0.00 0.02 0.02 95 1012.5
20260906012931 77 223 0.0 0.0 0.00 0.02 0.02 95 1012.4
20260906012431 78 223 0.0 0.0 0.00 0.02 0.02 94 1012.5
20260906011930 78 223 0.0 0.0 0.00 0.02 0.02 94 1012.2
20260906011425 78 223 0.0 0.0 0.00 0.02 0.02 94 1012.3
20260906010921 78 223 0.0 0.0 0.00 0.02 0.02 93 1012.4
20260906010416 78 223 0.0 0.0 0.00 0.02 0.02 93 1012.2
20260906005912 78 225 0.0 0.0 0.00 0.02 0.02 93 1012.2
20260906005412 79 226 0.0 0.0 0.00 0.02 0.02 92 1012.2
20260906004910 79 225 0.0 0.0 0.00 0.02 0.02 92 1012.0
20260906004405 79 224 0.0 0.0 0.00 0.02 0.02 93 1012.0
20260906003901 79 225 0.0 0.0 0.00 0.02 0.02 93 1012.0
20260906003356 79 225 0.0 0.0 0.00 0.02 0.02 93 1011.8
20260906002851 80 233 0.0 0.0 0.00 0.02 0.02 93 1012.0
20260906002350 80 226 0.0 0.0 0.00 0.02 0.02 92 1011.9
20260906001846 80 225 0.0 0.0 0.00 0.02 0.02 92 1011.9
20260906001342 80 229 0.0 1.0 0.00 0.02 0.02 92 1012.0
20260906000836 81 231 0.0 0.0 0.00 0.02 0.02 91 1012.0
20260906000333 81 227 0.0 0.0 0.00 0.02 0.02 90 1011.7
20260905235826 82 224 0.0 0.0 0.00 0.02 0.02 90 1011.7
20260905235326 82 227 0.0 0.0 0.00 0.02 0.02 89 1012.0
20260905234821 82 224 0.0 0.0 0.00 0.02 0.02 89 1012.1
20260905234316 83 225 0.0 0.0 0.00 0.02 0.02 88 1012.0
20260905233811 82 226 0.0 0.0 0.00 0.02 0.02 87 1012.1
20260905233306 83 224 0.0 0.0 0.00 0.02 0.02 87 1012.2
20260905232805 83 224 0.0 0.0 0.00 0.02 0.02 86 1012.3
20260905232305 84 226 0.0 0.0 0.00 0.02 0.02 86 1012.3
20260905231757 84 224 0.0 1.0 0.00 0.02 0.02 84 1012.1
20260905231252 84 226 0.0 1.0 0.00 0.02 0.02 84 1012.0
20260905230748 84 227 0.0 0.0 0.00 0.02 0.02 83 1011.8
20260905230246 84 225 0.0 0.0 0.00 0.02 0.02 82 1011.5
20260905225746 84 225 0.0 0.0 0.00 0.02 0.02 82 1011.4
20260905225241 85 228 0.0 1.0 0.00 0.02 0.02 81 1011.3
20260905224740 85 233 0.0 0.0 0.00 0.02 0.02 80 1011.7
20260905224236 85 234 0.0 0.0 0.00 0.02 0.02 78 1011.8
20260905223731 85 228 0.0 0.0 0.00 0.02 0.02 77 1011.8
20260905223228 85 227 0.0 0.0 0.00 0.02 0.02 75 1011.6
20260905222724 85 228 0.0 0.0 0.00 0.02 0.02 75 1011.8
20260905222223 86 225 0.0 0.0 0.00 0.02 0.02 77 1011.6
20260905221719 86 225 0.0 0.0 0.00 0.02 0.02 72 1011.8
20260905221216 86 220 0.0 1.0 0.00 0.02 0.02 69 1011.7
20260905220711 87 220 0.0 0.0 0.00 0.02 0.02 74 1011.9
20260905220207 88 225 0.0 0.0 0.00 0.02 0.02 68 1012.2
20260905215706 88 224 0.0 1.0 0.00 0.02 0.02 63 1012.1
20260905215202 88 225 1.0 1.0 0.00 0.02 0.02 65 1012.5
20260905214658 88 228 0.0 0.0 0.00 0.02 0.02 67 1012.3
20260905214153 88 227 0.0 0.0 0.00 0.02 0.02 69 1012.1
20260905213648 88 227 0.0 0.0 0.00 0.02 0.02 71 1012.4
20260905213144 87 227 0.0 0.0 0.00 0.02 0.02 72 1012.5
20260905212639 87 226 0.0 0.0 0.00 0.02 0.02 73 1012.5
20260905212138 87 234 1.0 1.0 0.00 0.02 0.02 74 1012.7
20260905211633 86 229 1.0 1.0 0.00 0.02 0.02 75 1012.5
20260905211128 85 234 2.0 2.0 0.00 0.02 0.02 76 1012.5
20260905210625 85 237 1.0 2.0 0.00 0.02 0.02 77 1012.4
20260905210125 86 241 1.0 2.0 0.00 0.02 0.02 77 1012.5
20260905205619 85 244 1.0 2.0 0.00 0.02 0.02 80 1012.5
20260905205118 84 226 1.0 2.0 0.00 0.02 0.02 81 1012.5
20260905204618 84 235 1.0 2.0 0.00 0.02 0.02 81 1012.4
20260905204114 84 240 0.0 1.0 0.00 0.02 0.02 83 1012.4
20260905203614 84 173 2.0 2.0 0.00 0.02 0.02 82 1012.3
20260905203109 84 230 0.0 2.0 0.00 0.02 0.02 80 1012.5
20260905202604 85 259 2.0 3.0 0.00 0.02 0.02 78 1012.2
20260905202059 88 252 2.0 5.0 0.00 0.02 0.02 74 1012.3
20260905201555 92 250 3.0 5.0 0.00 0.02 0.02 66 1012.3
20260905201054 92 210 1.0 3.0 0.00 0.02 0.02 66 1012.2
20260905200550 91 209 1.0 3.0 0.00 0.02 0.02 69 1012.1
20260905200044 90 209 2.0 2.0 0.00 0.02 0.02 71 1012.2
20260905195544 88 222 0.0 0.0 0.00 0.02 0.02 73 1012.3
20260905195040 87 220 1.0 2.0 0.00 0.02 0.02 75 1012.4
20260905194539 87 218 0.0 1.0 0.00 0.02 0.02 73 1012.7
20260905194038 86 218 0.0 1.0 0.00 0.02 0.02 82 1012.7
20260905193533 84 220 0.0 0.0 0.00 0.02 0.02 78 1012.5
20260905193029 82 218 0.0 0.0 0.00 0.02 0.02 81 1012.7
20260905192524 81 207 1.0 1.0 0.00 0.02 0.02 87 1012.5
20260905192021 81 217 0.0 0.0 0.00 0.02 0.02 96 1012.8
20260905191519 80 226 0.0 0.0 0.00 0.02 0.02 95 1012.9
20260905191018 80 218 0.0 0.0 0.00 0.02 0.02 96 1013.2
20260905190516 80 224 0.0 0.0 0.00 0.02 0.02 97 1013.2
20260905190015 78 227 0.0 0.0 0.00 0.02 0.02 97 1013.2
20260905185510 78 225 0.0 0.0 0.00 0.02 0.02 96 1013.3
20260905185009 77 227 0.0 1.0 0.00 0.02 0.02 96 1013.6
20260905184504 78 204 1.0 1.0 0.05 0.02 0.02 95 1013.3
20260905184003 78 219 0.0 1.0 0.05 0.02 0.02 93 1013.5
20260905183503 80 220 0.0 0.0 0.07 0.01 0.01 90 1013.4
20260905182957 81 220 0.0 0.0 0.07 0.01 0.01 85 1013.7
20260905182457 83 221 1.0 2.0 0.00 0.00 0.00 77 1013.7
20260905181952 85 225 2.0 2.0 0.00 0.00 0.00 70 1013.5
20260905181447 92 267 4.0 5.0 0.00 0.00 0.00 70 1013.7
20260905180946 93 227 0.0 1.0 0.00 0.00 0.00 58 1013.1
20260905180441 90 212 1.0 2.0 0.00 0.00 0.00 76 1013.3
20260905175936 87 224 0.0 0.0 0.00 0.00 0.00 82 1013.3
20260905175435 87 223 0.0 0.0 0.00 0.00 0.00 80 1013.5
20260905174931 85 227 0.0 0.0 0.00 0.00 0.00 86 1013.3
20260905174426 86 237 0.0 0.0 0.00 0.00 0.00 86 1013.5
20260905173922 88 222 0.0 0.0 0.00 0.00 0.00 79 1013.4
20260905173418 91 239 2.0 2.0 0.00 0.00 0.00 72 1013.7
20260905172913 94 265 3.0 3.0 0.00 0.00 0.00 62 1013.5
20260905172410 97 261 3.0 3.0 0.00 0.00 0.00 55 1013.4
20260905171907 97 218 0.0 1.0 0.00 0.00 0.00 52 1013.5
20260905171403 97 221 1.0 5.0 0.00 0.00 0.00 52 1013.3
20260905170859 97 184 2.0 2.0 0.00 0.00 0.00 52 1013.5
20260905170355 96 222 1.0 1.0 0.00 0.00 0.00 54 1013.7
20260905165854 96 206 1.0 1.0 0.00 0.00 0.00 54 1013.8
20260905165349 95 219 0.0 2.0 0.00 0.00 0.00 55 1013.7
20260905164844 96 202 1.0 2.0 0.00 0.00 0.00 56 1013.9
20260905164339 95 223 0.0 1.0 0.00 0.00 0.00 56 1013.8
20260905163835 95 221 0.0 1.0 0.00 0.00 0.00 58 1014.2
20260905163331 95 274 3.0 3.0 0.00 0.00 0.00 57 1014.1
20260905162826 95 224 1.0 1.0 0.00 0.00 0.00 59 1014.4
20260905162320 94 222 0.0 1.0 0.00 0.00 0.00 59 1014.3
20260905161815 93 233 1.0 1.0 0.00 0.00 0.00 61 1014.1
20260905161315 93 226 0.0 1.0 0.00 0.00 0.00 63 1014.1
20260905160813 93 215 1.0 3.0 0.00 0.00 0.00 61 1014.3
20260905160308 93 216 0.0 2.0 0.00 0.00 0.00 62 1014.3
20260905155802 93 218 1.0 1.0 0.00 0.00 0.00 64 1014.5
20260905155301 92 217 1.0 1.0 0.00 0.00 0.00 64 1014.7
20260905154755 91 207 1.0 2.0 0.00 0.00 0.00 65 1014.4
20260905154251 90 221 0.0 0.0 0.00 0.00 0.00 66 1014.4
20260905153746 90 226 0.0 1.0 0.00 0.00 0.00 66 1014.6
20260905153242 90 222 0.0 1.0 0.00 0.00 0.00 66 1014.7
20260905152736 90 222 0.0 0.0 0.00 0.00 0.00 69 1014.6
20260905152231 89 219 1.0 2.0 0.00 0.00 0.00 68 1014.7
20260905151731 89 238 0.0 0.0 0.00 0.00 0.00 70 1014.7
20260905151227 89 221 0.0 0.0 0.00 0.00 0.00 73 1014.9
20260905150726 88 219 0.0 2.0 0.00 0.00 0.00 72 1014.9
20260905150226 87 212 0.0 1.0 0.00 0.00 0.00 71 1014.9
20260905145724 87 215 0.0 1.0 0.00 0.00 0.00 72 1014.9
20260905145219 87 219 0.0 0.0 0.00 0.00 0.00 74 1014.9
20260905144717 86 214 0.0 1.0 0.00 0.00 0.00 73 1015.1
20260905144212 86 214 0.0 2.0 0.00 0.00 0.00 74 1015.2
20260905143711 85 219 0.0 0.0 0.00 0.00 0.00 78 1015.0
20260905143206 85 216 0.0 0.0 0.00 0.00 0.00 77 1015.1
20260905142704 84 218 0.0 1.0 0.00 0.00 0.00 77 1015.2
20260905142159 83 215 0.0 1.0 0.00 0.00 0.00 82 1015.1
20260905141655 83 216 1.0 2.0 0.00 0.00 0.00 83 1015.3
20260905141150 83 205 1.0 1.0 0.00 0.00 0.00 83 1015.2
20260905140645 84 212 0.0 0.0 0.00 0.00 0.00 81 1015.1
20260905140139 83 213 0.0 1.0 0.00 0.00 0.00 82 1015.2
20260905135634 82 216 0.0 1.0 0.00 0.00 0.00 83 1015.3
20260905135130 81 220 0.0 0.0 0.00 0.00 0.00 88 1015.2
20260905134624 80 224 0.0 0.0 0.00 0.00 0.00 89 1015.3
20260905134123 80 222 0.0 0.0 0.00 0.00 0.00 90 1015.3
20260905133619 79 225 0.0 0.0 0.00 0.00 0.00 91 1015.3
20260905133119 79 221 0.0 0.0 0.00 0.00 0.00 92 1015.5
20260905132618 78 220 0.0 0.0 0.00 0.00 0.00 92 1015.4
20260905132113 78 213 1.0 1.0 0.00 0.00 0.00 92 1015.4
20260905131608 77 217 1.0 1.0 0.00 0.00 0.00 94 1015.5
20260905131103 77 222 0.0 0.0 0.00 0.00 0.00 95 1015.6
20260905130603 77 221 0.0 0.0 0.00 0.00 0.00 95 1015.6
20260905130058 76 220 0.0 0.0 0.00 0.00 0.00 96 1015.4
20260905125557 76 220 0.0 0.0 0.00 0.00 0.00 97 1015.4
20260905125053 75 220 0.0 0.0 0.00 0.00 0.00 98 1015.5
20260905124549 75 214 0.0 0.0 0.00 0.00 0.00 99 1015.5